[[{"header":{"parameterUnit":"m.s-1","parameterCategory":1,"la1":30.2991,"la2":30.254,"lo1":-89.0895,"lo2":-89.0444,"dy":0.0017,"dx":0.0017,"nx":28,"ny":28,"refTime":"2023-09-30T21:00:00:Z","depth":0,"parameterNumber":2,"parameterNumberName":"U-component_of_WINDS"},"data":[0,0,0,0,0,0,0,0,0,0,0,0,0,0,0,0,0,0,0,0,0,0,0,0,0,0,0,0,0,0,0,0,0,0,0,0,0,0,0,0,0,0,0,0,0,0,0,0,0,0,0,0,0,0,0,0,0,0,-3.8924,-3.8924,0,-3.8889,-3.8888,-3.8888,-3.876,-3.8757,-3.8754,-3.8752,-3.8718,-3.872,-3.8722,0,0,0,0,0,0,0,0,0,0,0,0,0,-3.8888,-3.8889,-3.8924,-3.8924,-3.8923,-3.8889,-3.8888,-3.8888,-3.8761,-3.8757,-3.8754,-3.875,-3.8717,-3.872,-3.8722,0,0,0,0,0,0,0,0,0,0,0,0,0,-3.8883,-3.8889,-3.8924,-3.8856,-3.8849,-3.8889,-3.8888,-3.8887,-3.8761,-3.8757,-3.8753,-3.8749,-3.8717,-3.8719,-3.8722,-3.8826,0,0,-3.873,-3.8732,0,0,0,0,0,0,0,0,-3.8884,-3.8885,-3.8866,-3.8861,-3.8853,-3.8824,-3.8863,-3.8867,-3.8762,-3.8795,-3.8751,-3.8746,-3.8757,-3.8756,-3.8759,-3.8824,-3.8823,-3.8731,-3.8732,-3.8733,-3.8734,0,0,0,0,0,0,0,-3.8884,-3.8885,-3.891,-3.8866,-3.8858,-3.8828,-3.8823,-3.8863,-3.8801,-3.8792,-3.8782,-3.878,-3.8753,-3.8757,-3.8757,-3.8822,-3.8731,-3.8733,-3.8735,-3.8736,-3.8975,-3.8979,0,0,0,0,0,0,-3.8893,-3.8887,-3.8911,-3.8909,-3.8858,-3.8833,-3.8826,-3.8838,-3.88,-3.879,-3.8783,-3.8774,-3.8754,-3.8754,-3.8756,-3.8878,-3.8733,-3.8736,-3.8737,-3.897,-3.8976,-3.8981,0,0,0,0,0,0,-3.8893,-3.8897,-3.8913,-3.8895,-3.8895,-3.8838,-3.8852,-3.884,-3.8843,-3.8794,-3.8782,-3.8799,-3.8751,-3.8752,-3.881,-3.8875,-3.8737,-3.874,-3.8965,-3.8972,-3.8979,-3.9121,0,0,0,0,0,0,-3.8893,-3.8898,-3.8935,-3.8897,-3.8896,-3.8967,-3.8856,-3.8842,-3.8848,-3.8835,-3.8805,-3.8796,-3.8748,-3.8807,-3.8813,-3.8876,-3.8742,-3.8959,-3.8968,-3.8976,-3.911,-3.9132,-3.9151,0,0,0,0,0,-3.8892,-3.8976,-3.8938,-3.8941,-3.8942,-3.8971,-3.897,-3.8912,-3.8854,-3.8892,-3.8861,-3.8797,-3.8866,-3.8814,-3.8819,-3.8884,-3.8954,-3.8965,-3.8976,-3.9101,-3.9128,-3.915,0,0,0,0,0,0,-3.9024,-3.897,-3.8926,-3.9001,-3.8991,-3.8949,-3.8995,-3.8941,-3.8949,-3.8936,-3.8865,-3.8859,-3.8929,-3.8911,-3.8854,-3.8985,-3.89,-3.8912,-3.8994,-3.9018,-3.9038,-3.9042,-3.8744,0,0,0,0,0,-3.9062,-3.9088,-3.904,-3.911,-3.9108,-3.9053,-3.9063,-3.9019,-3.9007,-3.9002,-3.8974,-3.8966,-3.8986,-3.9001,-3.9016,-3.9107,-3.91,-3.9155,-3.9175,-3.9192,-3.9204,-3.9254,-3.9279,-3.9016,-3.9016,-3.9016,0,0,-3.914,-3.9114,-3.9135,-3.9136,-3.9124,-3.9155,-3.905,-3.9086,-3.911,-3.9008,-3.9062,-3.9042,-3.9027,-3.9104,-3.9135,-3.9092,-3.9275,-3.9205,-3.9219,-3.9222,-3.9268,-3.9293,-3.9315,-3.9023,-3.9022,-3.9021,0,0,-3.9299,-3.9281,-3.9339,-3.9329,-3.9311,-3.9274,-3.9289,-3.9255,-3.9238,-3.9291,-3.9216,-3.9243,-3.9278,-3.9272,-3.9274,-3.9434,-3.9377,-3.9441,-3.9548,-3.9598,-3.9619,-3.9637,-3.9697,-3.972,-3.9453,-3.9454,-3.9454,0,-3.9399,-3.9441,-3.9376,-3.9418,-3.9423,-3.9332,-3.9392,-3.9386,-3.9375,-3.9381,-3.9331,-3.9376,-3.9359,-3.9435,-3.9474,-3.9477,-3.9494,-3.9445,-3.9621,-3.9638,-3.9654,-3.9711,-3.9734,-3.9462,-3.9461,-3.946,-3.9459,0,-3.9567,-3.9598,-3.9648,-3.964,-3.9649,-3.97,-3.9645,-3.9663,-3.9619,-3.9589,-3.9645,-3.9623,-3.9634,-3.9648,-3.9605,-3.9718,-3.9692,-3.9633,-3.9547,-3.9688,-3.9741,-3.9762,-3.9473,-3.947,-3.9468,-3.9466,0,0,-3.9808,-3.9765,-3.9784,-3.9781,-3.9756,-3.978,-3.9828,-3.9838,-3.9857,-3.9853,-3.9894,-3.9927,-3.9873,-3.9875,-3.983,-3.9874,-4.0007,-3.981,-3.9808,-3.985,-4.0135,-4.0182,-4.0208,-3.9969,-3.9972,-3.9975,-4.0138,0,-3.9962,-4.0041,-3.9985,-4.0075,-4.0105,-4.002,-4.0063,-4.0054,-4.0027,-4.005,-4.002,-4.0046,-3.9971,-3.9972,-4.0011,-3.9983,-4.0064,-3.997,-4.0009,-4.0011,-4.0018,-4.0235,-4.0284,-4.0438,-4.0157,-4.0161,-4.0163,0,-4.0152,-4.0157,-4.025,-4.0222,-4.0232,-4.0272,-4.0279,-4.03,-4.0289,-4.0267,-4.0271,-4.0216,-4.0265,-4.0178,-4.0246,-4.0183,-4.0195,-4.0184,-4.0189,-4.0192,-4.0098,-4.0247,-4.0485,-4.051,-4.0194,-4.0192,-4.019,0,-4.0323,-4.0353,-4.0413,-4.0412,-4.038,-4.0411,-4.0399,-4.0383,-4.0394,-4.04,-4.0408,-4.042,-4.0427,-4.0439,-4.039,-4.0331,-4.0465,-4.0374,-4.0451,-4.0453,-4.0484,-4.0483,-4.0731,-4.0488,-4.0488,-4.0488,-4.0487,0,-4.0502,-4.0563,-4.049,-4.0527,-4.0594,-4.053,-4.0599,-4.0578,-4.0566,-4.06,-4.0526,-4.056,-4.0492,-4.052,-4.0482,-4.0545,-4.0548,-4.0534,-4.0524,-4.0542,-4.0544,-4.0551,-4.054,-4.0494,-4.0492,-4.0491,-4.049,0,-4.0704,-4.0657,-4.0718,-4.0683,-4.0676,-4.0728,-4.0699,-4.0733,-4.0702,-4.0746,-4.0753,-4.0705,-4.0734,-4.0686,-4.0708,-4.0683,-4.0773,-4.0744,-4.0777,-4.077,-4.085,-4.0845,-4.1113,-4.1146,-4.088,-4.0883,-4.0885,0,-4.0823,-4.0868,-4.0839,-4.0856,-4.0849,-4.0877,-4.0888,-4.0828,-4.0843,-4.0836,-4.0872,-4.0895,-4.091,-4.096,-4.0929,-4.0947,-4.092,-4.1013,-4.0923,-4.0941,-4.0926,-4.0925,-4.0931,-4.1033,-4.1036,-4.1038,-4.104,0,-4.104,-4.1015,-4.1033,-4.1046,-4.1061,-4.1067,-4.1068,-4.1087,-4.1023,-4.1045,-4.1073,-4.1085,-4.1109,-4.1134,-4.1145,-4.1134,-4.1079,-4.1069,-4.1088,-4.1109,-4.1127,-4.1122,-4.0831,-4.1063,-4.1061,-4.1059,-4.1058,-4.1057,-4.1206,-4.1244,-4.123,-4.1254,-4.1249,-4.1252,-4.1284,-4.1258,-4.128,-4.1295,-4.1258,-4.1297,-4.1287,-4.1296,-4.1292,-4.1323,-4.1282,-4.1309,-4.1317,-4.1325,-4.134,-4.112,-4.1324,-4.1324,-4.1323,-4.1322,-4.1322,0,-4.1422,-4.1409,-4.1432,-4.1437,-4.1457,-4.1401,-4.14,-4.1421,-4.1456,-4.1451,-4.1468,-4.1503,-4.1528,-4.1499,-4.1518,-4.1549,-4.1524,-4.1556,-4.1555,-4.1554,-4.1373,-4.1356,-4.1576,-4.1576,-4.1576,-4.1576,-4.1576,-4.1576,-4.1537,-4.1599,-4.1573,-4.1633,-4.162,-4.1657,-4.1662,-4.1666,-4.1662,-4.1704,-4.1724,-4.1705,-4.1692,-4.171,-4.1731,-4.1722,-4.1735,-4.1777,-4.176,-4.1591,-4.1566,-4.1543,-4.1526,-4.1779,-4.1779,-4.1938,-4.194,-4.1941]},{"header":{"parameterUnit":"m.s-1","parameterCategory":1,"la1":30.2991,"la2":30.254,"lo1":-89.0895,"lo2":-89.0444,"dy":0.0017,"dx":0.0017,"nx":28,"ny":28,"refTime":"2023-09-30T21:00:00:Z","depth":0,"parameterNumber":3,"parameterNumberName":"V-component_of_WINDS"},"data":[0,0,0,0,0,0,0,0,0,0,0,0,0,0,0,0,0,0,0,0,0,0,0,0,0,0,0,0,0,0,0,0,0,0,0,0,0,0,0,0,0,0,0,0,0,0,0,0,0,0,0,0,0,0,0,0,0,0,1.533,1.5329,0,1.5262,1.5261,1.526,1.5246,1.5247,1.5247,1.5248,1.5169,1.5166,1.5164,0,0,0,0,0,0,0,0,0,0,0,0,0,1.5441,1.5439,1.533,1.5329,1.5328,1.5262,1.5261,1.526,1.5246,1.5247,1.5248,1.5248,1.517,1.5167,1.5163,0,0,0,0,0,0,0,0,0,0,0,0,0,1.5385,1.5439,1.533,1.5314,1.5312,1.5262,1.5261,1.526,1.5246,1.5247,1.5248,1.5248,1.5171,1.5167,1.5163,1.5122,0,0,1.5151,1.5149,0,0,0,0,0,0,0,0,1.5388,1.538,1.5317,1.5315,1.5312,1.5264,1.5271,1.5213,1.5246,1.5271,1.5248,1.5249,1.5199,1.5193,1.5178,1.5118,1.5115,1.5151,1.5148,1.5147,1.5145,0,0,0,0,0,0,0,1.5392,1.5383,1.5303,1.5316,1.5313,1.5307,1.53,1.526,1.5231,1.5268,1.5267,1.526,1.5198,1.5182,1.5176,1.5114,1.5151,1.5147,1.5145,1.5143,1.5016,1.5016,0,0,0,0,0,0,1.54,1.5387,1.5305,1.5301,1.5353,1.5305,1.5297,1.5278,1.5231,1.5225,1.5259,1.526,1.5188,1.5181,1.5173,1.5121,1.5147,1.5143,1.5141,1.5017,1.5016,1.5015,0,0,0,0,0,0,1.5402,1.5393,1.5308,1.5343,1.5332,1.5302,1.5281,1.5276,1.526,1.5224,1.5218,1.5249,1.5188,1.5179,1.5135,1.5118,1.5141,1.5138,1.5019,1.5017,1.5016,1.5017,0,0,0,0,0,0,1.5405,1.5394,1.5379,1.5343,1.533,1.5273,1.528,1.5274,1.5255,1.5254,1.5213,1.5207,1.5188,1.5141,1.5132,1.5113,1.5135,1.502,1.5018,1.5016,1.5019,1.5016,1.5014,0,0,0,0,0,1.541,1.5381,1.5379,1.5369,1.5312,1.5272,1.5265,1.5247,1.5253,1.5237,1.5215,1.5208,1.5123,1.5137,1.5126,1.5106,1.5021,1.5019,1.5016,1.502,1.5017,1.5014,0,0,0,0,0,0,1.5412,1.5376,1.5373,1.5332,1.5306,1.527,1.5249,1.5244,1.5213,1.5213,1.519,1.5181,1.5138,1.5118,1.5135,1.5064,1.5072,1.5067,1.5078,1.5075,1.5073,1.5077,1.5131,0,0,0,0,0,1.5409,1.5382,1.535,1.5317,1.5305,1.528,1.5261,1.5251,1.5221,1.5209,1.5182,1.5152,1.5118,1.5096,1.5063,1.5017,1.5006,1.4998,1.4995,1.4994,1.4989,1.4961,1.4957,1.5008,1.5008,1.5008,0,0,1.5399,1.5376,1.536,1.5317,1.5295,1.5265,1.527,1.5238,1.5215,1.5203,1.5161,1.5141,1.5105,1.506,1.5039,1.5041,1.4973,1.4991,1.499,1.4985,1.4959,1.4954,1.495,1.5006,1.5006,1.5007,0,0,1.5367,1.5348,1.5318,1.5298,1.5266,1.525,1.5243,1.5209,1.5196,1.5154,1.5144,1.5115,1.5058,1.5033,1.5012,1.4973,1.4964,1.4963,1.4949,1.4923,1.4919,1.4915,1.4899,1.4893,1.4959,1.4959,1.4959,0,1.5359,1.5316,1.5303,1.5272,1.5252,1.5244,1.5212,1.5192,1.515,1.5135,1.514,1.5069,1.5044,1.4992,1.4983,1.4968,1.4957,1.4966,1.4921,1.4917,1.4913,1.4897,1.4892,1.4959,1.4959,1.4959,1.4959,0,1.5306,1.5277,1.5256,1.5219,1.5198,1.5166,1.5146,1.5126,1.5117,1.51,1.5057,1.5028,1.4988,1.4976,1.4966,1.4923,1.4925,1.4926,1.4933,1.4908,1.4893,1.4887,1.4958,1.4958,1.4958,1.4958,0,0,1.527,1.5229,1.5221,1.5204,1.517,1.5145,1.5113,1.5078,1.506,1.5032,1.5002,1.4956,1.4957,1.4933,1.4921,1.4898,1.4867,1.4901,1.49,1.4894,1.4815,1.4812,1.4806,1.4863,1.4862,1.4861,1.4817,0,1.5232,1.5177,1.5165,1.5116,1.5088,1.5081,1.5053,1.5027,1.5011,1.4983,1.4964,1.493,1.4935,1.4921,1.4899,1.4876,1.485,1.4879,1.4832,1.483,1.4838,1.4798,1.4795,1.4755,1.4811,1.481,1.481,0,1.5179,1.5153,1.5102,1.5073,1.506,1.5035,1.5002,1.4976,1.4947,1.4936,1.4912,1.4903,1.4866,1.4879,1.4827,1.4847,1.4827,1.4813,1.4811,1.4803,1.4816,1.4786,1.4742,1.4735,1.48,1.4801,1.4802,0,1.5154,1.5107,1.507,1.5057,1.5021,1.5004,1.4988,1.496,1.494,1.491,1.4896,1.4862,1.4842,1.4815,1.4795,1.4806,1.4744,1.4755,1.4732,1.4732,1.4716,1.4716,1.4665,1.4709,1.4709,1.4709,1.4709,0,1.5111,1.5079,1.5059,1.5036,1.5001,1.4987,1.4951,1.4935,1.491,1.4882,1.4874,1.4847,1.4825,1.4795,1.4779,1.4738,1.4729,1.4717,1.4713,1.4716,1.4717,1.47,1.4701,1.4707,1.4708,1.4708,1.4708,0,1.5075,1.5061,1.5021,1.4992,1.4985,1.4959,1.4933,1.491,1.4895,1.4859,1.485,1.4825,1.4789,1.4769,1.4722,1.4712,1.4665,1.4663,1.4675,1.4672,1.4649,1.4651,1.4582,1.4571,1.4626,1.4625,1.4625,0,1.5046,1.5023,1.4993,1.4976,1.496,1.4931,1.4912,1.4898,1.4877,1.4843,1.4823,1.4788,1.4758,1.47,1.4676,1.464,1.4636,1.4614,1.463,1.4634,1.4632,1.4632,1.4628,1.461,1.461,1.4609,1.4609,0,1.4996,1.4991,1.4965,1.4936,1.4914,1.4889,1.4865,1.485,1.4832,1.4809,1.4774,1.4752,1.4706,1.467,1.4633,1.4613,1.4606,1.4605,1.4597,1.4598,1.4605,1.4598,1.4664,1.4606,1.4606,1.4606,1.4606,1.4607,1.4961,1.4939,1.4916,1.4886,1.4868,1.4846,1.4822,1.4806,1.4778,1.4742,1.4735,1.4697,1.4668,1.4619,1.4599,1.4567,1.457,1.456,1.4556,1.4553,1.4551,1.4614,1.4561,1.4561,1.4561,1.4561,1.4561,0,1.4907,1.4893,1.4867,1.4835,1.4811,1.4813,1.4787,1.4766,1.4734,1.4709,1.4682,1.4641,1.4606,1.4581,1.4545,1.4525,1.452,1.4515,1.4514,1.4509,1.4551,1.456,1.4519,1.4519,1.4519,1.4519,1.4519,1.4519,1.4877,1.484,1.4832,1.4786,1.4771,1.4736,1.4721,1.47,1.468,1.4636,1.4609,1.4594,1.4569,1.4531,1.4499,1.4492,1.4477,1.4472,1.4464,1.4502,1.4507,1.4511,1.4519,1.447,1.447,1.4424,1.4424,1.4424]}]]